Other Surface Observations
Issued by NWS

Home | Current Version | Previous Version | Text Only | Print | Product List | Glossary On
Versions: 1 2 3 4 5 6 7 8 9 10 11 12 13 14 15 16 17 18 19 20 21 22 23 24 25 26 27 28 29 30 31 32 33 34 35 36 37 38 39 40 41 42 43 44 45 46 47 48 49 50
000
SXUS52 KTAE 181605
OSOTAE
OSOTAE
North Florida/South Alabama/Southwest Georgia Weather Roundup
National Weather Service Tallahassee Florida
1200 PM EDT THU SEP 18 2014

Note: "fair" indicates few or no clouds below 12,000 feet with no
significant weather and/or obstructions to visibility.

!FLZ017-115-028-034-025-181700
...North Florida...

CITY           SKY/WX    TMP DP  RH WIND       PRES   REMARKS
TALLAHASSEE    MOSUNNY   87  68  52 NW6       29.95S HX  90
APALACHICOLA   SUNNY     87  73  62 SE7       29.96R HX  94
PERRY          SUNNY     86  68  54 CALM      29.96R
CROSS CITY       N/A     87  72  60 CALM      29.95S HX  93
HOMERVILLE     FAIR      88  70  55 NW5       29.95F HX  92
JACKSONVILLE   PTSUNNY   86  72  62 CALM      29.94S HX  92
$$

!FLZ112-006-005-002-011-181700
...Florida Panhandle...

CITY           SKY/WX    TMP DP  RH WIND       PRES   REMARKS
MARIANNA       SUNNY     85  69  58 CALM      29.96S
BONIFAY          N/A     85  68  56 VRB5      29.98R
PANAMA CITY NW FAIR      88  71  57 VRB5      29.95R HX  94
TYNDALL AFB    NOT AVBL
TYND DRONE APT NOT AVBL
DE FUNIAK SPR  FAIR      83  69  61 NE7       29.97S
EGLIN AFB      NOT AVBL
DESTIN         MOSUNNY   87  70  56 E7        29.96R HX  92
HURLBURT       NOT AVBL
CRESTVIEW      MOSUNNY   85  70  60 VRB3      29.98R
PENSACOLA      MOSUNNY   82  71  69 E5        29.95S
$$

!ALZ063-066-181700
...South Alabama...

CITY           SKY/WX    TMP DP  RH WIND       PRES   REMARKS
DOTHAN         SUNNY     84  66  54 NE6       30.01S
OZARK CAIRNS   NOT AVBL
FT RUCKER HELI SUNNY     84  61  45 NE3       29.97R
RUCKER HELI 3  NOT AVBL
RUCKER HELI 2  FAIR      85  61  44 VRB5      29.98R
FLORALA APT    MOSUNNY   84  68  58 NE5       29.99S
ANDALUSIA      MOSUNNY   87  65  47 E3        29.98R
TROY           SUNNY     83  57  41 E6        29.99F
EUFALA         FAIR      82  60  47 N3        29.98S
MOBILE         CLOUDY    84  72  67 E3        29.97R
$$

!GAZ120>161-181700
...Southwest and South Central Georgia...

CITY           SKY/WX    TMP DP  RH WIND       PRES   REMARKS
THOMASVILLE    FAIR      86  68  54 N6        29.97F
BAINBRIDGE     MOSUNNY   88  70  55 N6        29.97S HX  92
MOODY AFB      NOT AVBL
VALDOSTA       SUNNY     87  68  52 CALM      29.95S HX  90
MOULTRIE       SUNNY     84  64  51 NW8       29.97S
BLAKELY        SUNNY     86  61  42 E5          N/A
ALBANY         SUNNY     85  62  46 VRB3      29.99S
TIFTON         FAIR      83  60  45 W5        29.96S
FITZGERALD     FAIR      78  68  70 N8        30.00S
CORDELE        CLOUDY    74  68  80 NE3       30.00S
AMERICUS       FAIR      75  68  78 NE6       30.01R
$$

!GMZ750-755-770-775-181700
...Coastal and Buoy Obs...

STATION/POSITION TIME  TEMP    WIND        PRES    VSBY  WAVE
                       AIR SEA DIR/SP/G                  HT/PER
                 (UTC) (F)     (DEG/KT/KT) (MB)    (MI)  (FT/S)
KEATON BEACH     1600   83     250/  4/  5 1014.4R
CEDAR KEY        1500   81     170/  2/  3 1014.6R
C TOWER          1600   80      80/  3/  4 1014.4R
APALACHICOLA BUO 1600   83 85   60/  2/  4 1014.6R         1/ 5
PANAMA CITY BUOY NOT AVBL
MOBILE BUOY      1457   84 86   90/  4/  4 1014.7R         1/ 5
ORANGE BCH AL BU 1600   83 86  100/  6/  8 1014.2R         1/ 8
$$



USA.gov is the U.S. government's official web portal to all federal, state and local government web resources and services.